SITRO-AIS 28

Last updated on Wed Nov 05 2025 00:03:48 GMT+0000 (Coordinated Universal Time)

1 59071U 24039U 25308.60892939 .00003737 00000+0 30474-3 0 9994 2 59071 95.3931 81.1122 0151480 32.0689 328.9641 14.91148277 91249
UTC large
Height (km)
Speed (km/s)
/
Latitude / Longitude
Inclination (degrees)
Orbital Period (minutes)
Azimuth
Elevation
Range (km)
Doppler Factor

Next 0 passes for location: London (51.5072 / 0.1276)

Sorry there are no passes over London.